Location: Ripley
(48.3812°N, 115.4473°W)
Time: 05:41:17
(UTC+00:00)

O/OREOS (USA 219) - Pass Details

Date: 04 July 2022
Orbit: 621 x 646 km, 72.0° (Epoch: 22 May)

Event Time Altitude Azimuth Distance (km) Brightness Sun altitude
Rises 06:38:40 0° 338° (NNW) 2,966 ? -17.2°
Reaches altitude 10° 06:41:04 10° 345° (NNW) 2,054 ? -17.3°
Maximum altitude 06:45:27 41° 56° (ENE) 940 ? -17.5°
Enters shadow 06:48:06 21° 116° (ESE) 1,453 ? -17.6°
